RH
99 83 99 93 91 82 85 82 73 65 84 89 82 83 91 85 87 80 84 78 70 62 58 45 46 47 51 52 58 66 74 78 83 84 80 79 85 89 90 86 84 89 80
82 83 96 93 97 95 88 86 80 74 88 93 81 78 74 78 83 85 83 74 60 54 53 66 70 74 73 70 78 83 80 81 82 82 85 86 81 88 88 86 83 80 67
74 86 81 90 99 88 86 87 91 96 83 98 91 83 79 75 75 77 76 63 51 51 64 87 92 87 86 84 97 92 87 82 82 84 88 86 75 76 84 88 86 75 77
68 64 83 87 93 99 99 96 87 87 84 96 99 90 85 87 88 79 78 74 77 80 74 88 92 91 90 88 87 88 82 78 83 82 89 91 88 80 85 87 85 85 81
68 82 83 83 82 87 94 91 100 98 83 66 90 88 77 74 84 74 89 98 98 95 88 80 77 84 85 87 82 80 81 86 95 88 81 68 82 93 86 85 86 89 86
84 75 74 74 75 94 79 100 94 100 96 81 74 86 73 67 68 98 99 99 99 93 88 74 77 80 80 76 74 73 71 70 85 87 84 56 55 77 91 85 83 90 83
94 84 82 80 73 73 78 87 92 95 97 86 73 78 58 61 65 67 76 76 78 82 80 80 75 76 76 63 65 63 59 62 78 82 77 73 63 75 100 95 86 86 84
92 98 85 72 73 70 80 79 87 93 90 98 89 80 80 74 71 71 68 67 67 65 70 67 66 65 63 60 56 56 50 56 64 85 82 79 81 96 100 99 90 90 59
66 77 82 78 83 74 87 83 80 78 82 77 98 95 89 88 86 81 77 80 77 76 75 67 67 64 66 66 71 75 56 61 76 89 81 92 100 100 100 98 96 76 51
59 61 70 68 72 78 79 87 84 82 82 80 82 75 71 69 78 78 73 79 76 77 80 74 72 76 73 88 81 76 70 76 87 90 95 99 100 100 98 90 76 47 49
65 59 54 54 58 58 58 66 82 78 82 88 84 86 91 85 83 79 68 81 78 77 70 74 74 77 82 81 84 75 84 74 93 100 99 100 99 95 92 63 50 52 60
67 69 65 55 51 56 64 63 72 78 79 79 86 90 91 96 91 95 89 85 73 79 70 69 77 68 84 85 89 95 94 87 80 94 100 98 97 92 56 54 53 61 61
56 64 71 70 58 50 58 66 66 70 73 79 86 95 90 86 81 72 72 72 73 76 73 72 79 77 78 79 99 100 100 100 95 100 97 95 86 62 55 56 62 58 59
52 59 66 74 77 73 66 59 65 70 72 67 63 72 66 69 68 69 66 61 64 63 65 66 72 82 97 99 100 98 99 100 100 99 95 74 64 57 63 62 60 57 59
62 59 57 62 69 71 75 75 71 73 77 86 64 62 60 61 64 67 61 61 66 68 77 82 89 98 100 99 99 100 100 100 99 85 80 60 63 66 59 54 53 55 57
69 67 62 56 56 62 60 65 76 75 72 71 74 71 65 59 62 57 67 73 70 64 65 71 78 94 99 100 99 100 100 97 86 74 60 67 62 54 54 53 54 54 57
73 70 68 64 57 51 52 53 57 62 69 76 78 75 66 57 60 68 69 62 58 56 56 64 82 100 100 100 100 100 96 84 64 68 67 60 55 55 54 53 54 56 61
79 75 69 67 62 59 52 48 46 49 52 52 56 60 62 64 62 58 59 61 60 60 65 77 93 97 93 91 99 100 76 71 72 65 60 58 58 56 54 57 63 68 74
84 84 81 76 69 60 55 52 49 47 46 45 46 49 48 50 54 56 62 65 63 66 69 91 99 98 93 98 99 72 77 73 67 63 61 60 58 58 61 63 67 73 82
81 83 83 79 72 66 63 57 53 51 51 50 50 49 50 51 55 59 60 63 70 74 85 94 100 98 95 89 69 79 75 70 66 63 63 60 61 64 66 68 73 84 88
89 81 77 76 75 69 65 62 60 58 58 56 52 50 50 51 55 59 60 63 68 74 78 84 88 91 79 71 80 80 74 70 68 67 64 66 66 68 70 77 85 94 97
90 84 79 76 74 72 70 69 68 66 64 61 58 56 56 58 58 64 70 73 77 80 80 78 77 73 72 79 84 80 75 72 72 70 72 74 71 72 77 81 86 92 92
82 88 80 80 79 76 72 70 73 75 75 76 68 63 63 64 68 70 72 77 83 85 85 82 79 78 79 82 83 83 79 78 77 73 74 74 74 77 79 74 53 46 42
68 84 79 77 78 81 81 82 75 75 76 79 80 83 88 91 94 98 92 96 100 96 92 89 86 86 87 87 87 88 86 82 80 79 81 81 80 80 80 80 70 46 32
68 82 77 74 74 77 78 82 84 82 84 86 87 94 100 99 96 97 99 100 100 100 100 96 94 94 92 83 86 89 85 84 82 85 84 83 81 82 86 86 86 70 41
80 82 88 77 72 74 72 76 83 86 86 93 93 99 98 99 99 99 98 99 99 99 100 100 100 100 100 100 98 95 92 92 92 89 93 93 90 85 89 90 91 90 69
Wind_Speed
16 14 25 18 12 21 25 38 26 29 44 41 43 43 40 37 38 40 39 36 34 32 29 25 23 20 17 16 15 14 13 13 12 10 12 15 15 14 13 10 12 12 13
18 13 20 16 12 18 21 20 35 27 38 46 45 43 41 39 39 38 38 35 31 31 29 25 21 18 16 15 15 14 14 13 15 13 15 8 13 14 13 12 12 11 10
26 21 22 15 15 19 15 13 28 34 51 48 43 42 39 35 34 32 36 33 31 30 29 26 22 19 15 14 14 14 13 14 12 14 12 3 2 4 14 14 11 10 9
23 23 21 17 17 17 20 11 25 25 40 36 40 38 40 38 38 34 32 32 28 26 28 26 24 21 19 17 15 15 16 15 13 13 11 11 4 2 5 11 12 11 10
24 25 19 15 12 11 11 17 19 43 44 42 33 30 35 37 36 36 34 33 30 27 27 25 24 22 20 17 14 13 13 13 14 13 11 11 15 16 16 13 15 15 9
31 28 23 20 18 16 10 15 13 37 44 43 38 35 35 32 31 35 36 35 33 30 28 26 24 22 20 17 16 15 12 8 14 17 18 16 22 21 18 16 14 15 12
31 21 21 23 19 11 13 16 17 30 23 33 36 34 33 32 32 33 33 32 31 30 28 24 21 22 20 14 16 16 14 11 20 25 21 19 24 27 21 19 15 14 13
7 21 23 17 17 10 14 16 17 22 20 18 38 34 31 31 31 29 25 24 23 21 18 18 19 21 21 20 21 21 24 27 25 26 26 26 28 25 28 24 17 16 13
3 4 7 14 14 13 21 23 15 16 30 33 24 31 31 23 25 24 23 22 20 23 24 23 25 26 24 28 27 23 22 18 20 26 23 22 17 20 22 21 20 16 13
18 12 2 1 7 14 19 21 20 21 32 34 32 20 19 35 30 25 25 23 19 21 21 22 26 25 23 24 27 23 21 20 24 28 25 17 19 22 18 18 17 16 16
17 11 5 2 1 7 7 11 19 18 19 37 33 28 31 26 26 28 35 32 29 25 22 17 18 15 21 22 26 29 25 23 26 23 17 18 17 17 16 15 15 15 15
19 18 13 1 5 3 4 4 9 18 20 27 31 34 32 30 31 33 33 37 29 32 26 28 28 31 32 31 36 33 21 25 27 17 19 17 18 15 14 15 15 15 16
22 24 23 17 7 2 5 7 7 10 11 14 22 21 13 14 16 20 19 21 27 31 31 35 36 40 40 31 22 17 17 16 17 20 19 17 15 15 15 15 16 17 18
25 24 23 22 17 9 5 3 5 9 12 11 10 11 11 16 17 16 15 17 17 22 24 21 21 21 20 17 17 17 19 20 20 18 16 15 15 15 15 16 16 16 17
24 22 21 20 20 17 11 6 1 6 7 6 11 7 10 6 4 9 14 17 17 16 16 16 17 16 16 17 18 20 23 21 19 18 17 17 15 15 15 16 16 17 19
19 18 17 17 17 16 16 13 9 3 4 10 10 8 11 16 13 9 13 13 13 13 13 14 14 15 17 16 16 17 18 18 17 18 16 15 15 14 15 16 18 19 19
14 16 16 14 14 14 13 12 11 9 6 2 4 9 9 11 16 19 15 14 13 13 14 14 14 15 16 17 17 17 18 18 17 16 15 14 14 15 15 16 17 17 16
12 13 12 10 10 9 7 8 9 7 6 4 1 2 5 8 11 11 12 12 12 13 14 14 14 15 17 18 19 19 18 18 17 15 16 15 15 14 14 15 14 14 14
10 10 10 9 9 9 8 6 4 3 3 3 4 4 4 6 8 10 12 14 14 14 14 15 16 18 18 19 19 18 19 18 17 17 16 14 14 14 15 14 13 14 12
10 10 10 10 10 11 11 8 5 4 4 5 7 8 8 9 11 12 12 14 15 15 15 16 18 19 20 19 19 19 18 18 17 16 15 15 14 15 14 13 13 12 9
12 11 10 11 9 9 10 11 10 9 8 8 10 12 15 14 15 16 17 17 17 18 18 18 19 19 20 18 18 19 19 18 17 17 16 15 13 12 11 10 10 9 9
11 10 9 9 10 10 10 10 10 11 12 13 13 13 15 18 18 18 19 20 20 20 20 20 20 21 21 21 21 20 20 20 19 17 15 13 11 9 8 8 10 10 9
11 11 7 6 8 10 12 13 13 14 14 13 13 13 14 15 17 19 20 21 21 22 23 23 23 24 22 22 23 23 22 22 21 18 15 13 11 9 8 7 8 9 8
10 11 9 9 9 9 12 14 14 15 15 15 12 11 11 11 13 16 18 20 22 23 23 24 25 24 24 24 25 25 25 24 22 20 17 14 13 11 9 8 9 10 10
11 12 9 12 11 13 15 18 17 15 14 12 11 10 9 11 11 14 15 17 20 21 22 23 24 25 25 23 26 25 24 25 23 19 18 15 13 12 12 9 10 11 11
11 12 11 11 11 14 17 18 18 16 12 9 11 10 9 10 12 14 14 14 16 21 23 23 24 23 24 23 21 22 23 22 23 23 19 16 14 14 14 11 10 11 11
Wind_Direction
166 131 181 192 210 221 208 205 201 202 187 186 187 188 185 183 189 193 195 193 191 188 186 181 182 183 184 185 190 191 191 193 200 204 221 226 233 230 229 230 245 260 278
136 154 185 185 180 198 185 193 198 193 175 189 193 192 192 193 199 198 199 196 189 184 180 177 179 181 181 185 188 195 199 197 211 217 233 249 235 234 230 245 260 274 283
151 165 181 191 188 192 201 197 189 195 197 193 185 187 187 191 188 187 189 189 186 181 181 177 180 186 187 192 194 209 206 214 211 220 230 216 194 183 219 228 257 254 279
168 174 186 181 183 180 187 178 200 191 186 187 192 185 180 180 183 182 182 182 180 180 183 183 186 191 195 207 210 219 225 222 224 225 233 245 268 194 196 222 235 246 277
172 189 182 165 145 186 210 202 187 179 183 185 200 193 194 189 180 181 184 181 184 190 185 189 195 196 200 204 210 223 240 241 257 257 252 256 254 263 255 253 248 257 267
174 162 152 167 149 153 145 207 174 167 189 184 185 201 202 197 188 184 185 184 187 190 196 197 195 193 194 199 200 215 225 251 274 265 229 225 248 265 257 256 257 262 268
154 162 177 180 154 159 176 171 173 183 159 191 181 192 192 189 193 191 188 185 186 186 186 189 192 194 198 224 224 222 232 246 272 271 257 235 249 263 245 259 259 261 267
171 181 193 182 178 180 196 183 179 184 197 168 180 190 187 183 185 189 187 196 196 201 197 205 221 229 244 257 242 252 262 259 245 259 265 264 258 246 249 252 254 262 261
54 184 214 217 201 208 220 213 200 188 194 199 173 184 189 193 204 207 209 213 219 223 218 216 220 225 242 249 238 244 247 235 254 266 268 259 253 247 245 248 259 259 253
42 50 56 234 221 227 238 228 221 215 200 196 205 210 220 214 224 221 223 219 225 222 229 227 239 247 264 248 238 236 237 246 254 259 255 235 239 242 249 254 248 251 258
30 28 53 123 230 241 229 250 228 221 210 207 204 211 214 215 219 230 232 232 225 235 246 249 237 242 252 240 239 240 238 228 248 245 232 236 239 244 242 240 248 251 257
44 41 43 94 186 131 183 147 205 221 218 208 207 218 235 242 245 240 222 230 232 226 225 244 234 229 231 232 243 257 246 236 236 228 226 231 232 238 238 248 252 263 268
46 45 48 46 52 158 170 160 168 185 201 225 228 228 240 243 248 245 236 236 238 228 228 233 238 234 247 251 246 235 234 233 228 223 226 227 230 236 243 254 265 270 275
57 54 47 49 52 54 56 205 210 199 209 205 212 215 224 221 226 232 229 237 229 230 231 238 243 242 238 236 224 219 223 222 219 220 217 223 230 237 250 261 264 269 271
49 51 48 48 51 53 49 30 272 220 217 195 176 222 278 313 305 248 240 248 243 239 237 241 240 238 232 225 225 224 223 217 213 214 221 219 231 245 252 260 268 272 276
37 40 49 50 50 50 47 49 51 53 217 225 235 234 243 247 279 270 284 255 242 238 238 235 233 229 221 221 221 224 227 210 218 216 217 231 240 249 260 266 269 271 270
23 22 30 38 44 40 43 56 54 49 49 62 193 198 213 217 217 250 250 241 238 235 236 234 230 222 224 227 229 218 216 208 206 217 226 236 245 253 260 266 273 277 277
14 19 21 20 28 33 38 42 48 46 41 39 20 221 227 237 239 246 245 243 243 242 241 234 228 223 227 227 226 218 202 206 214 221 230 235 246 254 260 266 266 268 266
348 358 9 10 4 4 11 16 23 11 354 334 316 299 266 250 248 245 247 248 245 243 238 227 223 225 227 226 217 204 211 217 223 228 232 239 249 260 268 272 269 267 263
353 351 337 338 349 5 8 2 345 314 288 279 278 273 274 269 263 257 254 254 250 245 238 232 225 228 227 222 212 217 221 226 229 234 242 249 254 263 276 275 266 264 260
348 340 344 346 341 337 343 348 343 328 312 290 278 276 270 267 263 258 252 251 249 244 238 233 230 227 224 222 224 228 231 232 234 236 240 245 257 265 269 264 260 261 248
334 341 342 341 342 339 338 335 334 330 318 308 299 285 270 261 261 259 253 249 245 241 238 233 230 226 224 227 231 234 236 230 230 234 236 238 249 251 255 255 247 248 241
312 325 328 344 347 343 340 339 339 334 329 321 306 291 277 269 262 258 256 253 249 245 240 234 232 232 231 230 235 236 234 233 230 228 230 234 240 232 245 251 246 244 248
300 295 305 318 330 343 347 341 334 328 328 327 319 309 294 278 266 257 253 248 247 244 242 240 237 237 237 237 237 234 230 233 231 227 225 229 229 235 238 245 252 252 246
290 293 278 289 314 332 336 329 329 329 326 326 323 317 303 287 280 275 268 258 253 250 248 246 244 244 242 245 245 244 238 234 232 227 226 233 241 241 239 238 245 251 251
285 286 268 272 288 305 317 316 317 317 320 330 330 320 313 303 297 298 291 278 260 247 243 241 242 246 250 247 246 241 236 230 224 225 232 235 245 247 231 233 241 256 260